| time (UTC) | temp C | wind direction | speed KPH | gust KPH | rain 1hr cm | rain 24hr cm | rain mn cm | humidity % | barometer mb |
| 20260831220506 | 38 | 335 | 8.0 | 17.7 | 0.00 | 0.00 | 0.00 | 39 | 1012.7 |
| 20260831220111 | 38 | 252 | 8.0 | 17.7 | 0.00 | 0.00 | 0.00 | 39 | 1012.8 |
| 20260831220005 | 38 | 103 | 9.7 | 17.7 | 0.00 | 0.00 | 0.00 | 39 | 1012.6 |
| 20260831215503 | 38 | 23 | 4.8 | 14.5 | 0.00 | 0.00 | 0.00 | 38 | 1012.8 |
| 20260831215003 | 38 | 268 | 8.0 | 20.9 | 0.00 | 0.00 | 0.00 | 38 | 1012.7 |
| 20260831214559 | 38 | 55 | 6.4 | 19.3 | 0.00 | 0.00 | 0.00 | 36 | 1012.9 |
| 20260831214502 | 38 | 143 | 6.4 | 20.9 | 0.00 | 0.00 | 0.00 | 35 | 1012.7 |
| 20260831214001 | 39 | 319 | 6.4 | 19.3 | 0.00 | 0.00 | 0.00 | 36 | 1012.7 |
| 20260831213500 | 39 | 213 | 6.4 | 16.1 | 0.00 | 0.00 | 0.00 | 36 | 1012.7 |
| 20260831213054 | 38 | 104 | 6.4 | 14.5 | 0.00 | 0.00 | 0.00 | 35 | 1013.0 |
| 20260831213000 | 39 | 221 | 6.4 | 16.1 | 0.00 | 0.00 | 0.00 | 36 | 1012.8 |
| 20260831212501 | 39 | 300 | 8.0 | 16.1 | 0.00 | 0.00 | 0.00 | 35 | 1013.0 |
| 20260831212001 | 39 | 277 | 4.8 | 16.1 | 0.00 | 0.00 | 0.00 | 36 | 1013.0 |
| 20260831211612 | 38 | 335 | 6.4 | 17.7 | 0.00 | 0.00 | 0.00 | 35 | 1013.2 |
| 20260831211501 | 39 | 46 | 8.0 | 17.7 | 0.00 | 0.00 | 0.00 | 36 | 1013.0 |
| 20260831211001 | 39 | 326 | 6.4 | 19.3 | 0.00 | 0.00 | 0.00 | 36 | 1013.1 |
| 20260831210501 | 39 | 41 | 8.0 | 19.3 | 0.00 | 0.00 | 0.00 | 37 | 1013.1 |
| 20260831210103 | 38 | 168 | 6.4 | 12.9 | 0.00 | 0.00 | 0.00 | 34 | 1013.3 |
| 20260831210000 | 39 | 335 | 8.0 | 12.9 | 0.00 | 0.00 | 0.00 | 35 | 1013.0 |
| 20260831205502 | 39 | 115 | 4.8 | 14.5 | 0.00 | 0.00 | 0.00 | 36 | 1013.2 |
| 20260831205003 | 39 | 56 | 3.2 | 14.5 | 0.00 | 0.00 | 0.00 | 36 | 1013.3 |
| 20260831204559 | 39 | 167 | 8.0 | 14.5 | 0.00 | 0.00 | 0.00 | 36 | 1013.6 |
| 20260831204503 | 39 | 131 | 9.7 | 14.5 | 0.00 | 0.00 | 0.00 | 35 | 1013.5 |
| 20260831204002 | 39 | 202 | 6.4 | 14.5 | 0.00 | 0.00 | 0.00 | 36 | 1013.4 |
| 20260831203501 | 39 | 16 | 3.2 | 14.5 | 0.00 | 0.00 | 0.00 | 37 | 1013.5 |
| 20260831203102 | 39 | 49 | 4.8 | 14.5 | 0.00 | 0.00 | 0.00 | 36 | 1013.8 |
| 20260831203001 | 39 | 224 | 6.4 | 14.5 | 0.00 | 0.00 | 0.00 | 37 | 1013.7 |
| 20260831202501 | 39 | 243 | 9.7 | 14.5 | 0.00 | 0.00 | 0.00 | 37 | 1013.6 |
| 20260831202001 | 39 | 12 | 4.8 | 14.5 | 0.00 | 0.00 | 0.00 | 36 | 1013.7 |
| 20260831201952 | 40 | 280 | 6.4 | 12.9 | 0.00 | 0.00 | 0.00 | 38 | 1013.7 |
| 20260831201608 | 39 | 309 | 4.8 | 14.5 | 0.00 | 0.00 | 0.00 | 39 | 1013.9 |
| 20260831201000 | 39 | 184 | 4.8 | 16.1 | 0.00 | 0.00 | 0.00 | 39 | 1013.8 |
| 20260831200501 | 39 | 103 | 6.4 | 16.1 | 0.00 | 0.00 | 0.00 | 38 | 1013.8 |
| 20260831200221 | 39 | 183 | 4.8 | 12.9 | 0.00 | 0.00 | 0.00 | 39 | 1013.9 |
| 20260831200105 | 38 | 258 | 3.2 | 14.5 | 0.00 | 0.00 | 0.00 | 38 | 1014.1 |
| 20260831195502 | 39 | 235 | 6.4 | 12.9 | 0.00 | 0.00 | 0.00 | 38 | 1013.9 |
| 20260831195229 | 39 | 108 | 4.8 | 12.9 | 0.00 | 0.00 | 0.00 | 38 | 1013.9 |
| 20260831194723 | 40 | 90 | 3.2 | 20.9 | 0.00 | 0.00 | 0.00 | 36 | 1014.1 |
| 20260831194635 | 39 | 277 | 3.2 | 20.9 | 0.00 | 0.00 | 0.00 | 35 | 1014.3 |
| 20260831194003 | 39 | 316 | 8.0 | 20.9 | 0.00 | 0.00 | 0.00 | 38 | 1014.1 |
| 20260831193515 | 39 | 23 | 3.2 | 16.1 | 0.00 | 0.00 | 0.00 | 37 | 1014.2 |
| 20260831193102 | 38 | 221 | 6.4 | 14.5 | 0.00 | 0.00 | 0.00 | 37 | 1014.4 |
| 20260831193002 | 39 | 309 | 6.4 | 16.1 | 0.00 | 0.00 | 0.00 | 37 | 1014.3 |
| 20260831192502 | 38 | 226 | 6.4 | 11.3 | 0.00 | 0.00 | 0.00 | 37 | 1014.3 |
| 20260831192002 | 38 | 298 | 4.8 | 22.5 | 0.00 | 0.00 | 0.00 | 37 | 1014.5 |
| 20260831191726 | 38 | 1 | 8.0 | 22.5 | 0.00 | 0.00 | 0.00 | 37 | 1014.5 |
| 20260831191602 | 38 | 269 | 8.0 | 20.9 | 0.00 | 0.00 | 0.00 | 37 | 1014.6 |
| 20260831191002 | 38 | 346 | 6.4 | 17.7 | 0.00 | 0.00 | 0.00 | 38 | 1014.5 |
| 20260831190722 | 38 | 29 | 4.8 | 25.7 | 0.00 | 0.00 | 0.00 | 39 | 1014.7 |
| 20260831190113 | 38 | 130 | 4.8 | 24.1 | 0.00 | 0.00 | 0.00 | 38 | 1015.0 |
| 20260831190002 | 38 | 209 | 4.8 | 25.7 | 0.00 | 0.00 | 0.00 | 39 | 1014.7 |
| 20260831185502 | 38 | 290 | 6.4 | 14.5 | 0.00 | 0.00 | 0.00 | 38 | 1014.9 |
| 20260831185003 | 38 | 113 | 1.6 | 14.5 | 0.00 | 0.00 | 0.00 | 41 | 1014.8 |
| 20260831184631 | 37 | 226 | 4.8 | 12.9 | 0.00 | 0.00 | 0.00 | 41 | 1015.1 |
| 20260831184502 | 38 | 157 | 6.4 | 14.5 | 0.00 | 0.00 | 0.00 | 41 | 1014.9 |
| 20260831184228 | 38 | 95 | 3.2 | 14.5 | 0.00 | 0.00 | 0.00 | 42 | 1015.0 |
| 20260831183500 | 37 | 207 | 4.8 | 14.5 | 0.00 | 0.00 | 0.00 | 43 | 1015.1 |
| 20260831183108 | 37 | 20 | 4.8 | 14.5 | 0.00 | 0.00 | 0.00 | 43 | 1015.3 |
| 20260831183001 | 37 | 224 | 4.8 | 14.5 | 0.00 | 0.00 | 0.00 | 43 | 1015.1 |
| 20260831182501 | 37 | 169 | 6.4 | 14.5 | 0.00 | 0.00 | 0.00 | 41 | 1015.2 |
| 20260831182001 | 37 | 81 | 6.4 | 17.7 | 0.00 | 0.00 | 0.00 | 43 | 1015.3 |
| 20260831181559 | 37 | 285 | 6.4 | 17.7 | 0.00 | 0.00 | 0.00 | 42 | 1015.5 |
| 20260831181501 | 37 | 344 | 6.4 | 17.7 | 0.00 | 0.00 | 0.00 | 42 | 1015.2 |
| 20260831181001 | 37 | 148 | 4.8 | 20.9 | 0.00 | 0.00 | 0.00 | 43 | 1015.5 |
| 20260831180501 | 37 | 91 | 6.4 | 20.9 | 0.00 | 0.00 | 0.00 | 44 | 1015.5 |
| 20260831180054 | 37 | 265 | 4.8 | 12.9 | 0.00 | 0.00 | 0.00 | 45 | 1015.8 |
| 20260831180001 | 37 | 269 | 6.4 | 14.5 | 0.00 | 0.00 | 0.00 | 45 | 1015.6 |
| 20260831175502 | 37 | 1 | 6.4 | 12.9 | 0.00 | 0.00 | 0.00 | 45 | 1015.6 |
| 20260831175003 | 37 | 339 | 8.0 | 14.5 | 0.00 | 0.00 | 0.00 | 47 | 1015.7 |
| 20260831174612 | 36 | 13 | 3.2 | 17.7 | 0.00 | 0.00 | 0.00 | 47 | 1015.9 |
| 20260831174502 | 36 | 260 | 3.2 | 14.5 | 0.00 | 0.00 | 0.00 | 47 | 1015.7 |
| 20260831174220 | 36 | 176 | 6.4 | 14.5 | 0.00 | 0.00 | 0.00 | 48 | 1015.8 |
| 20260831173457 | 36 | 97 | 4.8 | 11.3 | 0.00 | 0.00 | 0.00 | 47 | 1016.0 |
| 20260831173211 | 36 | 153 | 4.8 | 12.9 | 0.00 | 0.00 | 0.00 | 48 | 1016.0 |
| 20260831173107 | 36 | 283 | 4.8 | 12.9 | 0.00 | 0.00 | 0.00 | 47 | 1016.2 |
| 20260831172447 | 36 | 30 | 6.4 | 12.9 | 0.00 | 0.00 | 0.00 | 50 | 1016.1 |
| 20260831171943 | 36 | 101 | 4.8 | 19.3 | 0.00 | 0.00 | 0.00 | 50 | 1016.1 |
| 20260831171555 | 35 | 277 | 6.4 | 17.7 | 0.00 | 0.00 | 0.00 | 50 | 1016.3 |
| 20260831171439 | 35 | 242 | 8.0 | 19.3 | 0.00 | 0.00 | 0.00 | 50 | 1016.2 |
| 20260831171155 | 35 | 150 | 6.4 | 14.5 | 0.00 | 0.00 | 0.00 | 50 | 1016.2 |
| 20260831170431 | 35 | 218 | 3.2 | 12.9 | 0.00 | 0.00 | 0.00 | 52 | 1016.1 |
| 20260831170152 | 35 | 258 | 6.4 | 14.5 | 0.00 | 0.00 | 0.00 | 52 | 1016.2 |
| 20260831170058 | 35 | 55 | 4.8 | 12.9 | 0.00 | 0.00 | 0.00 | 52 | 1016.5 |
| 20260831165431 | 35 | 162 | 6.4 | 14.5 | 0.00 | 0.00 | 0.00 | 52 | 1016.2 |
| 20260831164931 | 35 | 251 | 6.4 | 12.9 | 0.00 | 0.00 | 0.00 | 54 | 1016.2 |
| 20260831164606 | 35 | 121 | 3.2 | 12.9 | 0.00 | 0.00 | 0.00 | 54 | 1016.4 |
| 20260831164430 | 35 | 58 | 4.8 | 14.5 | 0.00 | 0.00 | 0.00 | 54 | 1016.1 |
| 20260831163930 | 34 | 65 | 6.4 | 14.5 | 0.00 | 0.00 | 0.00 | 56 | 1016.2 |
| 20260831163650 | 34 | 211 | 3.2 | 14.5 | 0.00 | 0.00 | 0.00 | 57 | 1016.3 |
| 20260831163055 | 33 | 234 | 4.8 | 16.1 | 0.00 | 0.00 | 0.00 | 55 | 1016.4 |
| 20260831162928 | 34 | 154 | 4.8 | 14.5 | 0.00 | 0.00 | 0.00 | 56 | 1016.2 |
| 20260831162423 | 34 | 288 | 4.8 | 11.3 | 0.00 | 0.00 | 0.00 | 57 | 1016.3 |
| 20260831161919 | 34 | 300 | 6.4 | 16.1 | 0.00 | 0.00 | 0.00 | 58 | 1016.2 |
| 20260831161607 | 33 | 209 | 3.2 | 16.1 | 0.00 | 0.00 | 0.00 | 57 | 1016.5 |
| 20260831161415 | 33 | 266 | 4.8 | 16.1 | 0.00 | 0.00 | 0.00 | 57 | 1016.2 |
| 20260831160911 | 33 | 39 | 4.8 | 14.5 | 0.00 | 0.00 | 0.00 | 59 | 1016.3 |
| 20260831160410 | 33 | 72 | 4.8 | 14.5 | 0.00 | 0.00 | 0.00 | 60 | 1016.4 |
| 20260831160109 | 33 | 231 | 3.2 | 16.1 | 0.00 | 0.00 | 0.00 | 60 | 1016.7 |
| 20260831155906 | 33 | 245 | 4.8 | 12.9 | 0.00 | 0.00 | 0.00 | 62 | 1016.5 |
| 20260831155406 | 33 | 176 | 4.8 | 11.3 | 0.00 | 0.00 | 0.00 | 62 | 1016.4 |
| 20260831154906 | 32 | 230 | 4.8 | 14.5 | 0.00 | 0.00 | 0.00 | 63 | 1016.4 |
| 20260831154621 | 32 | 37 | 4.8 | 14.5 | 0.00 | 0.00 | 0.00 | 64 | 1016.7 |
| 20260831154408 | 32 | 75 | 6.4 | 14.5 | 0.00 | 0.00 | 0.00 | 65 | 1016.5 |
| 20260831153908 | 32 | 169 | 4.8 | 14.5 | 0.00 | 0.00 | 0.00 | 65 | 1016.4 |
| 20260831153359 | 32 | 104 | 6.4 | 16.1 | 0.00 | 0.00 | 0.00 | 65 | 1016.4 |
| 20260831153105 | 31 | 136 | 4.8 | 17.7 | 0.00 | 0.00 | 0.00 | 66 | 1016.6 |
| 20260831152855 | 31 | 341 | 4.8 | 16.1 | 0.00 | 0.00 | 0.00 | 66 | 1016.3 |
| 20260831152611 | 31 | 25 | 3.2 | 12.9 | 0.00 | 0.00 | 0.00 | 69 | 1016.3 |
| 20260831152115 | 31 | 53 | 8.0 | 17.7 | 0.00 | 0.00 | 0.00 | 69 | 1016.4 |
| 20260831151607 | 31 | 226 | 6.4 | 16.1 | 0.00 | 0.00 | 0.00 | 69 | 1016.6 |
| 20260831151340 | 31 | 186 | 6.4 | 17.7 | 0.00 | 0.00 | 0.00 | 70 | 1016.4 |
| 20260831151112 | 31 | 11 | 6.4 | 16.1 | 0.00 | 0.00 | 0.00 | 71 | 1016.4 |
| 20260831150333 | 30 | 23 | 4.8 | 16.1 | 0.00 | 0.00 | 0.00 | 72 | 1016.4 |
| 20260831150058 | 30 | 274 | 4.8 | 17.7 | 0.00 | 0.00 | 0.00 | 72 | 1016.5 |
| 20260831145831 | 30 | 297 | 4.8 | 17.7 | 0.00 | 0.00 | 0.00 | 73 | 1016.4 |
| 20260831145331 | 30 | 240 | 8.0 | 17.7 | 0.00 | 0.00 | 0.00 | 73 | 1016.4 |
| 20260831144830 | 30 | 169 | 4.8 | 12.9 | 0.00 | 0.00 | 0.00 | 75 | 1016.3 |
| 20260831144609 | 30 | 273 | 4.8 | 14.5 | 0.00 | 0.00 | 0.00 | 73 | 1016.5 |
| 20260831144331 | 30 | 139 | 4.8 | 12.9 | 0.00 | 0.00 | 0.00 | 74 | 1016.2 |
| 20260831143828 | 30 | 135 | 6.4 | 14.5 | 0.00 | 0.00 | 0.00 | 76 | 1016.3 |
| 20260831143554 | 30 | 143 | 6.4 | 14.5 | 0.00 | 0.00 | 0.00 | 76 | 1016.3 |
| 20260831143053 | 29 | 211 | 3.2 | 12.9 | 0.00 | 0.00 | 0.00 | 76 | 1016.6 |
| 20260831142828 | 30 | 37 | 4.8 | 12.9 | 0.00 | 0.00 | 0.00 | 76 | 1016.3 |
| 20260831142329 | 29 | 216 | 4.8 | 16.1 | 0.00 | 0.00 | 0.00 | 78 | 1016.4 |
| 20260831141829 | 29 | 184 | 4.8 | 16.1 | 0.00 | 0.00 | 0.00 | 78 | 1016.2 |
| 20260831141605 | 28 | 7 | 4.8 | 12.9 | 0.00 | 0.00 | 0.00 | 78 | 1016.6 |
| 20260831141329 | 29 | 170 | 4.8 | 14.5 | 0.00 | 0.00 | 0.00 | 79 | 1016.3 |
| 20260831140828 | 29 | 250 | 3.2 | 14.5 | 0.00 | 0.00 | 0.00 | 79 | 1016.4 |
| 20260831140551 | 28 | 59 | 4.8 | 11.3 | 0.00 | 0.00 | 0.00 | 81 | 1016.3 |
| 20260831140057 | 28 | 232 | 1.6 | 9.7 | 0.00 | 0.00 | 0.00 | 81 | 1016.7 |
| 20260831135829 | 28 | 146 | 3.2 | 9.7 | 0.00 | 0.00 | 0.00 | 82 | 1016.4 |
| 20260831135554 | 28 | 13 | 4.8 | 9.7 | 0.00 | 0.00 | 0.00 | 82 | 1016.2 |
| 20260831134831 | 28 | 240 | 3.2 | 11.3 | 0.00 | 0.00 | 0.00 | 82 | 1016.2 |
| 20260831134600 | 28 | 150 | 3.2 | 11.3 | 0.00 | 0.00 | 0.00 | 82 | 1016.3 |
| 20260831134330 | 28 | 60 | 3.2 | 11.3 | 0.00 | 0.00 | 0.00 | 83 | 1016.1 |
| 20260831133830 | 28 | 99 | 3.2 | 9.7 | 0.00 | 0.00 | 0.00 | 83 | 1016.1 |
| 20260831133329 | 28 | 308 | 3.2 | 9.7 | 0.00 | 0.00 | 0.00 | 83 | 1016.0 |
| 20260831133055 | 27 | 11 | 1.6 | 8.0 | 0.00 | 0.00 | 0.00 | 83 | 1016.2 |
| 20260831132828 | 28 | 298 | 3.2 | 8.0 | 0.00 | 0.00 | 0.00 | 84 | 1016.0 |
| 20260831132330 | 28 | 66 | 4.8 | 8.0 | 0.00 | 0.00 | 0.00 | 83 | 1015.9 |
| 20260831131829 | 28 | 189 | 3.2 | 8.0 | 0.00 | 0.00 | 0.00 | 84 | 1015.9 |
| 20260831131603 | 27 | 15 | 3.2 | 8.0 | 0.00 | 0.00 | 0.00 | 83 | 1016.0 |
| 20260831131329 | 28 | 293 | 1.6 | 8.0 | 0.00 | 0.00 | 0.00 | 84 | 1015.8 |
| 20260831130829 | 27 | 274 | 3.2 | 8.0 | 0.00 | 0.00 | 0.00 | 84 | 1015.9 |
| 20260831130328 | 27 | 240 | 3.2 | 9.7 | 0.00 | 0.00 | 0.00 | 85 | 1015.9 |
| 20260831130116 | 27 | 217 | 1.6 | 8.0 | 0.00 | 0.00 | 0.00 | 85 | 1016.1 |
| 20260831125828 | 27 | 63 | 3.2 | 9.7 | 0.00 | 0.00 | 0.00 | 85 | 1015.9 |
| 20260831125331 | 27 | 51 | 1.6 | 6.4 | 0.00 | 0.00 | 0.00 | 86 | 1015.8 |
| 20260831125316 | 27 | 44 | 3.2 | 6.4 | 0.00 | 0.00 | 0.00 | 86 | 1015.9 |
| 20260831124555 | 27 | 321 | 1.6 | 6.4 | 0.00 | 0.00 | 0.00 | 86 | 1016.0 |
| 20260831124329 | 27 | 338 | 1.6 | 4.8 | 0.00 | 0.00 | 0.00 | 86 | 1015.7 |
| 20260831123829 | 27 | 120 | 1.6 | 4.8 | 0.00 | 0.00 | 0.00 | 87 | 1015.5 |
| 20260831123329 | 27 | 295 | 1.6 | 3.2 | 0.00 | 0.00 | 0.00 | 87 | 1015.6 |
| 20260831123105 | 26 | 74 | 0.0 | 6.4 | 0.00 | 0.00 | 0.00 | 86 | 1015.7 |
| 20260831122828 | 27 | 262 | 1.6 | 6.4 | 0.00 | 0.00 | 0.00 | 87 | 1015.5 |
| 20260831122554 | 27 | 86 | 3.2 | 6.4 | 0.00 | 0.00 | 0.00 | 87 | 1015.3 |
| 20260831121831 | 27 | 329 | 1.6 | 6.4 | 0.00 | 0.00 | 0.00 | 87 | 1015.4 |
| 20260831121601 | 26 | 91 | 1.6 | 4.8 | 0.00 | 0.00 | 0.00 | 86 | 1015.5 |
| 20260831121331 | 27 | 179 | 3.2 | 6.4 | 0.00 | 0.00 | 0.00 | 86 | 1015.2 |
| 20260831120831 | 27 | 231 | 3.2 | 4.8 | 0.00 | 0.00 | 0.00 | 86 | 1015.1 |
| 20260831120329 | 27 | 127 | 1.6 | 4.8 | 0.00 | 0.00 | 0.00 | 86 | 1015.1 |
| 20260831120057 | 27 | 191 | 1.6 | 4.8 | 0.00 | 0.00 | 0.00 | 86 | 1015.2 |
| 20260831115829 | 27 | 332 | 1.6 | 4.8 | 0.00 | 0.00 | 0.00 | 86 | 1015.0 |
| 20260831115329 | 27 | 216 | 1.6 | 8.0 | 0.00 | 0.00 | 0.00 | 86 | 1015.0 |
| 20260831114829 | 27 | 300 | 1.6 | 8.0 | 0.00 | 0.00 | 0.00 | 86 | 1015.0 |
| 20260831114606 | 27 | 288 | 1.6 | 4.8 | 0.00 | 0.00 | 0.00 | 85 | 1015.2 |
| 20260831114329 | 27 | 323 | 1.6 | 4.8 | 0.00 | 0.00 | 0.00 | 86 | 1015.0 |
| 20260831113828 | 27 | 262 | 0.0 | 6.4 | 0.00 | 0.00 | 0.00 | 86 | 1014.9 |
| 20260831113328 | 27 | 179 | 1.6 | 6.4 | 0.00 | 0.00 | 0.00 | 85 | 1014.9 |
| 20260831113052 | 27 | 248 | 1.6 | 6.4 | 0.00 | 0.00 | 0.00 | 85 | 1015.1 |
| 20260831112828 | 27 | 13 | 1.6 | 4.8 | 0.00 | 0.00 | 0.00 | 85 | 1015.0 |
| 20260831112329 | 27 | 20 | 1.6 | 6.4 | 0.00 | 0.00 | 0.00 | 85 | 1015.0 |
| 20260831111829 | 27 | 193 | 1.6 | 6.4 | 0.00 | 0.00 | 0.00 | 85 | 1015.1 |
| 20260831111612 | 27 | 295 | 0.0 | 6.4 | 0.00 | 0.00 | 0.00 | 85 | 1015.2 |
| 20260831111328 | 27 | 231 | 0.0 | 4.8 | 0.00 | 0.00 | 0.00 | 85 | 1015.0 |
| 20260831110829 | 27 | 169 | 1.6 | 3.2 | 0.00 | 0.00 | 0.00 | 85 | 1015.0 |
| 20260831110329 | 27 | 276 | 1.6 | 4.8 | 0.00 | 0.00 | 0.00 | 85 | 1015.0 |
| 20260831110151 | 27 | 35 | 0.0 | 6.4 | 0.00 | 0.00 | 0.00 | 85 | 1015.2 |
| 20260831105829 | 27 | 231 | 0.0 | 6.4 | 0.00 | 0.00 | 0.00 | 85 | 1015.0 |
| 20260831105329 | 27 | 236 | 1.6 | 6.4 | 0.00 | 0.00 | 0.00 | 85 | 1014.8 |
| 20260831104829 | 27 | 91 | 1.6 | 6.4 | 0.00 | 0.00 | 0.00 | 85 | 1015.0 |
| 20260831104605 | 27 | 187 | 3.2 | 8.0 | 0.00 | 0.00 | 0.00 | 85 | 1015.0 |
| 20260831104551 | 27 | 250 | 3.2 | 4.8 | 0.00 | 0.00 | 0.00 | 84 | 1015.1 |
| 20260831104052 | 27 | 145 | 0.0 | 8.0 | 0.00 | 0.00 | 0.00 | 84 | 1014.9 |
| 20260831103553 | 27 | 153 | 1.6 | 6.4 | 0.00 | 0.00 | 0.00 | 85 | 1014.8 |
| 20260831103101 | 27 | 49 | 1.6 | 8.0 | 0.00 | 0.00 | 0.00 | 84 | 1015.1 |
| 20260831102829 | 27 | 82 | 3.2 | 8.0 | 0.00 | 0.00 | 0.00 | 84 | 1014.8 |
| 20260831102325 | 27 | 230 | 1.6 | 8.0 | 0.00 | 0.00 | 0.00 | 84 | 1014.9 |
| 20260831102044 | 27 | 296 | 1.6 | 8.0 | 0.00 | 0.00 | 0.00 | 84 | 1014.9 |
| 20260831101555 | 27 | 231 | 3.2 | 8.0 | 0.00 | 0.00 | 0.00 | 84 | 1015.0 |
| 20260831101317 | 27 | 338 | 3.2 | 8.0 | 0.00 | 0.00 | 0.00 | 84 | 1014.9 |
| 20260831100812 | 27 | 65 | 3.2 | 6.4 | 0.00 | 0.00 | 0.00 | 84 | 1014.8 |
| 20260831100306 | 27 | 295 | 1.6 | 8.0 | 0.00 | 0.00 | 0.00 | 84 | 1014.9 |
| 20260831100104 | 27 | 0 | 1.6 | 8.0 | 0.00 | 0.00 | 0.00 | 83 | 1015.0 |
| 20260831095807 | 28 | 113 | 1.6 | 8.0 | 0.00 | 0.00 | 0.00 | 84 | 1014.9 |
| 20260831095305 | 28 | 176 | 1.6 | 9.7 | 0.00 | 0.00 | 0.00 | 84 | 1015.1 |
| 20260831095025 | 28 | 250 | 3.2 | 9.7 | 0.00 | 0.00 | 0.00 | 84 | 1015.0 |
| 20260831094602 | 27 | 165 | 3.2 | 8.0 | 0.00 | 0.00 | 0.00 | 83 | 1015.3 |
| 20260831094533 | 28 | 14 | 1.6 | 6.4 | 0.00 | 0.00 | 0.00 | 84 | 1015.0 |
| 20260831094023 | 28 | 355 | 3.2 | 6.4 | 0.00 | 0.00 | 0.00 | 84 | 1015.1 |
| 20260831093253 | 28 | 288 | 3.2 | 6.4 | 0.00 | 0.00 | 0.00 | 84 | 1015.1 |
| 20260831093103 | 27 | 98 | 1.6 | 12.9 | 0.00 | 0.00 | 0.00 | 84 | 1015.2 |
| 20260831092750 | 28 | 345 | 3.2 | 6.4 | 0.00 | 0.00 | 0.00 | 84 | 1015.0 |
| 20260831092246 | 28 | 341 | 1.6 | 6.4 | 0.00 | 0.00 | 0.00 | 84 | 1014.8 |
| 20260831091741 | 28 | 18 | 4.8 | 6.4 | 0.00 | 0.00 | 0.00 | 84 | 1014.9 |
| 20260831091557 | 27 | 303 | 1.6 | 6.4 | 0.00 | 0.00 | 0.00 | 83 | 1015.1 |
| 20260831091238 | 28 | 152 | 3.2 | 8.0 | 0.00 | 0.00 | 0.00 | 84 | 1015.0 |
| 20260831090957 | 28 | 41 | 1.6 | 8.0 | 0.00 | 0.00 | 0.00 | 83 | 1014.9 |
| 20260831090455 | 28 | 63 | 4.8 | 8.0 | 0.00 | 0.00 | 0.00 | 83 | 1015.0 |
| 20260831085732 | 28 | 288 | 1.6 | 9.7 | 0.00 | 0.00 | 0.00 | 83 | 1014.9 |
| 20260831085450 | 28 | 280 | 4.8 | 19.3 | 0.00 | 0.00 | 0.00 | 83 | 1014.9 |
| 20260831085433 | 28 | 171 | 3.2 | 11.3 | 0.00 | 0.00 | 0.00 | 83 | 1015.0 |
| 20260831084604 | 28 | 186 | 3.2 | 19.3 | 0.00 | 0.00 | 0.00 | 82 | 1015.1 |
| 20260831084229 | 28 | 129 | 3.2 | 19.3 | 0.00 | 0.00 | 0.00 | 83 | 1014.9 |
| 20260831083729 | 28 | 24 | 3.2 | 12.9 | 0.00 | 0.00 | 0.00 | 83 | 1015.0 |
| 20260831083229 | 28 | 149 | 4.8 | 12.9 | 0.00 | 0.00 | 0.00 | 82 | 1015.1 |
| 20260831083057 | 28 | 253 | 4.8 | 12.9 | 0.00 | 0.00 | 0.00 | 82 | 1015.3 |
| 20260831082725 | 28 | 6 | 3.2 | 12.9 | 0.00 | 0.00 | 0.00 | 82 | 1015.1 |
| 20260831082221 | 28 | 138 | 3.2 | 12.9 | 0.00 | 0.00 | 0.00 | 82 | 1015.1 |
| 20260831082002 | 28 | 275 | 1.6 | 14.5 | 0.00 | 0.00 | 0.00 | 82 | 1015.3 |
| 20260831081634 | 28 | 213 | 3.2 | 14.5 | 0.00 | 0.00 | 0.00 | 81 | 1015.3 |
| 20260831081213 | 28 | 282 | 6.4 | 14.5 | 0.00 | 0.00 | 0.00 | 82 | 1015.3 |
| 20260831080709 | 28 | 220 | 6.4 | 12.9 | 0.00 | 0.00 | 0.00 | 82 | 1015.4 |
| 20260831080204 | 28 | 85 | 4.8 | 9.7 | 0.00 | 0.00 | 0.00 | 82 | 1015.3 |
| 20260831075702 | 28 | 357 | 6.4 | 12.9 | 0.00 | 0.00 | 0.00 | 83 | 1015.2 |
| 20260831075203 | 28 | 302 | 6.4 | 12.9 | 0.00 | 0.00 | 0.00 | 83 | 1015.3 |
| 20260831074703 | 28 | 32 | 1.6 | 8.0 | 0.00 | 0.00 | 0.00 | 83 | 1015.5 |
| 20260831074602 | 28 | 250 | 3.2 | 8.0 | 0.00 | 0.00 | 0.00 | 82 | 1015.7 |
| 20260831074424 | 28 | 23 | 3.2 | 8.0 | 0.00 | 0.00 | 0.00 | 83 | 1015.6 |
| 20260831073702 | 28 | 239 | 3.2 | 8.0 | 0.00 | 0.00 | 0.00 | 83 | 1015.7 |
| 20260831073158 | 28 | 136 | 1.6 | 9.7 | 0.00 | 0.00 | 0.00 | 83 | 1015.7 |
| 20260831073156 | 28 | 197 | 1.6 | 9.7 | 0.00 | 0.00 | 0.00 | 82 | 1015.8 |
| 20260831072655 | 28 | 17 | 3.2 | 9.7 | 0.00 | 0.00 | 0.00 | 83 | 1015.7 |
| 20260831072415 | 28 | 231 | 3.2 | 8.0 | 0.00 | 0.00 | 0.00 | 83 | 1015.7 |
| 20260831071647 | 28 | 97 | 3.2 | 11.3 | 0.00 | 0.00 | 0.00 | 83 | 1015.7 |
| 20260831071601 | 28 | 290 | 3.2 | 11.3 | 0.00 | 0.00 | 0.00 | 82 | 1015.9 |
| 20260831071142 | 28 | 108 | 3.2 | 11.3 | 0.00 | 0.00 | 0.00 | 83 | 1015.8 |
| 20260831070638 | 28 | 130 | 3.2 | 8.0 | 0.00 | 0.00 | 0.00 | 83 | 1015.8 |
| 20260831070133 | 28 | 87 | 3.2 | 8.0 | 0.00 | 0.00 | 0.00 | 82 | 1015.9 |
| 20260831070108 | 28 | 120 | 1.6 | 12.9 | 0.00 | 0.00 | 0.00 | 82 | 1016.1 |
| 20260831065837 | 28 | 207 | 6.4 | 11.3 | 0.00 | 0.00 | 0.00 | 82 | 1016.0 |
| 20260831065823 | 28 | 39 | 3.2 | 11.3 | 0.00 | 0.00 | 0.00 | 82 | 1015.9 |
| 20260831064854 | 28 | 214 | 3.2 | 11.3 | 0.00 | 0.00 | 0.00 | 82 | 1016.0 |
| 20260831064607 | 28 | 104 | 3.2 | 12.9 | 0.00 | 0.00 | 0.00 | 82 | 1016.2 |
| 20260831064129 | 28 | 257 | 3.2 | 12.9 | 0.00 | 0.00 | 0.00 | 82 | 1016.1 |
| 20260831063628 | 28 | 51 | 4.8 | 12.9 | 0.00 | 0.00 | 0.00 | 82 | 1016.0 |
| 20260831063128 | 28 | 160 | 0.0 | 9.7 | 0.00 | 0.00 | 0.00 | 82 | 1016.0 |
| 20260831063056 | 28 | 0 | 1.6 | 11.3 | 0.00 | 0.00 | 0.00 | 81 | 1016.3 |
| 20260831062858 | 28 | 51 | 4.8 | 9.7 | 0.00 | 0.00 | 0.00 | 81 | 1015.9 |
| 20260831062128 | 28 | 51 | 3.2 | 9.7 | 0.00 | 0.00 | 0.00 | 81 | 1015.9 |
| 20260831061629 | 28 | 216 | 3.2 | 11.3 | 0.00 | 0.00 | 0.00 | 81 | 1015.9 |
| 20260831061554 | 28 | 198 | 3.2 | 12.9 | 0.00 | 0.00 | 0.00 | 81 | 1016.1 |
| 20260831061129 | 28 | 195 | 3.2 | 11.3 | 0.00 | 0.00 | 0.00 | 81 | 1016.0 |
| 20260831060630 | 29 | 345 | 3.2 | 9.7 | 0.00 | 0.00 | 0.00 | 81 | 1016.0 |
| 20260831060129 | 29 | 321 | 3.2 | 9.7 | 0.00 | 0.00 | 0.00 | 80 | 1016.1 |
| 20260831060115 | 28 | 257 | 1.6 | 12.9 | 0.00 | 0.00 | 0.00 | 80 | 1016.3 |
| 20260831055629 | 29 | 39 | 3.2 | 9.7 | 0.00 | 0.00 | 0.00 | 80 | 1016.1 |
| 20260831055129 | 29 | 276 | 4.8 | 17.7 | 0.00 | 0.00 | 0.00 | 80 | 1016.1 |
| 20260831054631 | 29 | 268 | 3.2 | 17.7 | 0.00 | 0.00 | 0.00 | 80 | 1016.1 |
| 20260831054612 | 28 | 77 | 3.2 | 17.7 | 0.00 | 0.00 | 0.00 | 79 | 1016.4 |
| 20260831054131 | 29 | 0 | 4.8 | 14.5 | 0.00 | 0.00 | 0.00 | 80 | 1016.1 |
| 20260831053632 | 29 | 330 | 6.4 | 12.9 | 0.00 | 0.00 | 0.00 | 80 | 1016.0 |
| 20260831053131 | 29 | 200 | 6.4 | 14.5 | 0.00 | 0.00 | 0.00 | 80 | 1016.1 |
| 20260831053104 | 29 | 175 | 4.8 | 12.9 | 0.00 | 0.00 | 0.00 | 79 | 1016.3 |
| 20260831052629 | 29 | 316 | 6.4 | 14.5 | 0.00 | 0.00 | 0.00 | 80 | 1016.0 |
| 20260831052128 | 29 | 49 | 3.2 | 9.7 | 0.00 | 0.00 | 0.00 | 80 | 1016.0 |
| 20260831052117 | 29 | 25 | 4.8 | 11.3 | 0.00 | 0.00 | 0.00 | 80 | 1015.9 |
| 20260831051559 | 29 | 136 | 3.2 | 12.9 | 0.00 | 0.00 | 0.00 | 79 | 1016.2 |
| 20260831051129 | 29 | 316 | 4.8 | 14.5 | 0.00 | 0.00 | 0.00 | 80 | 1016.0 |
| 20260831050628 | 29 | 141 | 6.4 | 14.5 | 0.00 | 0.00 | 0.00 | 80 | 1016.0 |
| 20260831050141 | 29 | 285 | 3.2 | 12.9 | 0.00 | 0.00 | 0.00 | 79 | 1016.3 |
| 20260831050128 | 29 | 114 | 4.8 | 11.3 | 0.00 | 0.00 | 0.00 | 80 | 1016.0 |
| 20260831045628 | 29 | 326 | 4.8 | 11.3 | 0.00 | 0.00 | 0.00 | 79 | 1016.1 |
| 20260831045612 | 29 | 321 | 4.8 | 16.1 | 0.00 | 0.00 | 0.00 | 79 | 1016.1 |
| 20260831044631 | 29 | 237 | 6.4 | 16.1 | 0.00 | 0.00 | 0.00 | 79 | 1016.1 |
| 20260831044605 | 29 | 235 | 4.8 | 12.9 | 0.00 | 0.00 | 0.00 | 78 | 1016.2 |
| 20260831044131 | 29 | 139 | 6.4 | 12.9 | 0.00 | 0.00 | 0.00 | 79 | 1016.1 |
| 20260831043855 | 29 | 69 | 6.4 | 12.9 | 0.00 | 0.00 | 0.00 | 78 | 1016.1 |
| 20260831043130 | 29 | 265 | 6.4 | 12.9 | 0.00 | 0.00 | 0.00 | 78 | 1016.2 |
| 20260831043116 | 29 | 17 | 6.4 | 12.9 | 0.00 | 0.00 | 0.00 | 78 | 1016.3 |
| 20260831043108 | 29 | 91 | 4.8 | 12.9 | 0.00 | 0.00 | 0.00 | 77 | 1016.3 |
| 20260831042129 | 29 | 326 | 6.4 | 12.9 | 0.00 | 0.00 | 0.00 | 77 | 1016.1 |
| 20260831041631 | 29 | 215 | 4.8 | 12.9 | 0.00 | 0.00 | 0.00 | 77 | 1016.2 |
| 20260831041608 | 29 | 45 | 3.2 | 12.9 | 0.00 | 0.00 | 0.00 | 76 | 1016.2 |
| 20260831041131 | 29 | 96 | 6.4 | 14.5 | 0.00 | 0.00 | 0.00 | 76 | 1016.0 |
| 20260831040644 | 30 | 121 | 4.8 | 14.5 | 0.00 | 0.00 | 0.00 | 76 | 1015.8 |
| 20260831040126 | 30 | 162 | 6.4 | 11.3 | 0.00 | 0.00 | 0.00 | 76 | 1015.8 |
| 20260831040107 | 29 | 350 | 4.8 | 14.5 | 0.00 | 0.00 | 0.00 | 75 | 1016.0 |
| 20260831035624 | 30 | 319 | 3.2 | 11.3 | 0.00 | 0.00 | 0.00 | 76 | 1015.7 |
| 20260831035125 | 30 | 134 | 8.0 | 12.9 | 0.00 | 0.00 | 0.00 | 75 | 1015.6 |
| 20260831034620 | 30 | 6 | 6.4 | 14.5 | 0.00 | 0.00 | 0.00 | 75 | 1015.6 |
| 20260831034600 | 30 | 283 | 6.4 | 14.5 | 0.00 | 0.00 | 0.00 | 74 | 1015.7 |
| 20260831034340 | 30 | 207 | 3.2 | 14.5 | 0.00 | 0.00 | 0.00 | 74 | 1015.4 |
| 20260831033837 | 30 | 167 | 4.8 | 16.1 | 0.00 | 0.00 | 0.00 | 74 | 1015.4 |
| 20260831033343 | 30 | 182 | 6.4 | 16.1 | 0.00 | 0.00 | 0.00 | 73 | 1015.3 |
| 20260831033052 | 30 | 207 | 6.4 | 14.5 | 0.00 | 0.00 | 0.00 | 73 | 1015.5 |
| 20260831032608 | 30 | 194 | 4.8 | 12.9 | 0.00 | 0.00 | 0.00 | 73 | 1015.2 |
| 20260831032104 | 30 | 53 | 8.0 | 14.5 | 0.00 | 0.00 | 0.00 | 72 | 1015.2 |
| 20260831031604 | 30 | 319 | 6.4 | 14.5 | 0.00 | 0.00 | 0.00 | 72 | 1015.2 |
| 20260831031601 | 30 | 235 | 6.4 | 17.7 | 0.00 | 0.00 | 0.00 | 71 | 1015.4 |
| 20260831031104 | 30 | 244 | 6.4 | 17.7 | 0.00 | 0.00 | 0.00 | 72 | 1015.2 |
| 20260831030603 | 30 | 126 | 9.7 | 17.7 | 0.00 | 0.00 | 0.00 | 71 | 1015.0 |
| 20260831030106 | 30 | 233 | 6.4 | 17.7 | 0.00 | 0.00 | 0.00 | 70 | 1015.1 |
| 20260831025604 | 30 | 333 | 6.4 | 14.5 | 0.00 | 0.00 | 0.00 | 70 | 1014.7 |
| 20260831025101 | 30 | 113 | 8.0 | 14.5 | 0.00 | 0.00 | 0.00 | 70 | 1014.6 |
| 20260831024603 | 31 | 27 | 6.4 | 20.9 | 0.00 | 0.00 | 0.00 | 69 | 1014.6 |
| 20260831024101 | 31 | 27 | 8.0 | 20.9 | 0.00 | 0.00 | 0.00 | 68 | 1014.5 |
| 20260831023602 | 31 | 322 | 6.4 | 12.9 | 0.00 | 0.00 | 0.00 | 68 | 1014.3 |
| 20260831023103 | 31 | 256 | 6.4 | 14.5 | 0.00 | 0.00 | 0.00 | 67 | 1014.3 |
| 20260831023100 | 31 | 360 | 4.8 | 16.1 | 0.00 | 0.00 | 0.00 | 67 | 1014.5 |
| 20260831022602 | 31 | 96 | 6.4 | 16.1 | 0.00 | 0.00 | 0.00 | 67 | 1014.2 |
| 20260831022101 | 31 | 153 | 8.0 | 16.1 | 0.00 | 0.00 | 0.00 | 66 | 1014.3 |
| 20260831021601 | 31 | 47 | 3.2 | 16.1 | 0.00 | 0.00 | 0.00 | 66 | 1014.2 |
| 20260831021558 | 31 | 148 | 3.2 | 16.1 | 0.00 | 0.00 | 0.00 | 66 | 1014.4 |
| 20260831021334 | 31 | 109 | 9.7 | 16.1 | 0.00 | 0.00 | 0.00 | 66 | 1014.2 |
| 20260831020838 | 31 | 74 | 8.0 | 17.7 | 0.00 | 0.00 | 0.00 | 66 | 1014.1 |
| 20260831020116 | 31 | 219 | 6.4 | 19.3 | 0.00 | 0.00 | 0.00 | 65 | 1013.9 |
| 20260831020108 | 31 | 330 | 6.4 | 19.3 | 0.00 | 0.00 | 0.00 | 64 | 1014.1 |
| 20260831015603 | 31 | 274 | 9.7 | 19.3 | 0.00 | 0.00 | 0.00 | 64 | 1013.8 |
| 20260831015103 | 32 | 318 | 8.0 | 12.9 | 0.00 | 0.00 | 0.00 | 64 | 1013.8 |
| 20260831014604 | 32 | 260 | 4.8 | 12.9 | 0.00 | 0.00 | 0.00 | 63 | 1014.0 |
| 20260831014602 | 32 | 212 | 4.8 | 12.9 | 0.00 | 0.00 | 0.00 | 64 | 1013.8 |
| 20260831014103 | 32 | 220 | 4.8 | 16.1 | 0.00 | 0.00 | 0.00 | 63 | 1013.8 |
| 20260831013827 | 32 | 335 | 6.4 | 16.1 | 0.00 | 0.00 | 0.00 | 63 | 1013.7 |
| 20260831013556 | 32 | 257 | 8.0 | 16.1 | 0.00 | 0.00 | 0.00 | 62 | 1013.7 |
| 20260831013100 | 32 | 321 | 6.4 | 16.1 | 0.00 | 0.00 | 0.00 | 62 | 1013.8 |
| 20260831012603 | 32 | 236 | 8.0 | 16.1 | 0.00 | 0.00 | 0.00 | 62 | 1013.7 |
| 20260831012102 | 32 | 323 | 9.7 | 16.1 | 0.00 | 0.00 | 0.00 | 61 | 1013.7 |
| 20260831012049 | 33 | 355 | 9.7 | 19.3 | 0.00 | 0.00 | 0.00 | 60 | 1013.7 |
| 20260831011604 | 32 | 169 | 8.0 | 17.7 | 0.00 | 0.00 | 0.00 | 60 | 1013.9 |
| 20260831011102 | 33 | 186 | 9.7 | 19.3 | 0.00 | 0.00 | 0.00 | 59 | 1013.6 |
| 20260831010602 | 33 | 60 | 9.7 | 19.3 | 0.00 | 0.00 | 0.00 | 58 | 1013.7 |
| 20260831010104 | 33 | 355 | 9.7 | 17.7 | 0.00 | 0.00 | 0.00 | 57 | 1013.7 |
| 20260831005602 | 33 | 114 | 11.3 | 17.7 | 0.00 | 0.00 | 0.00 | 57 | 1013.5 |
| 20260831005102 | 33 | 133 | 8.0 | 16.1 | 0.00 | 0.00 | 0.00 | 57 | 1013.3 |
| 20260831004616 | 33 | 340 | 8.0 | 19.3 | 0.00 | 0.00 | 0.00 | 56 | 1013.3 |
| 20260831004601 | 33 | 250 | 9.7 | 19.3 | 0.00 | 0.00 | 0.00 | 57 | 1013.1 |
| 20260831004104 | 34 | 123 | 6.4 | 19.3 | 0.00 | 0.00 | 0.00 | 56 | 1013.0 |
| 20260831003604 | 34 | 111 | 6.4 | 19.3 | 0.00 | 0.00 | 0.00 | 55 | 1012.8 |
| 20260831003107 | 34 | 288 | 8.0 | 17.7 | 0.00 | 0.00 | 0.00 | 53 | 1013.1 |
| 20260831003103 | 34 | 255 | 8.0 | 19.3 | 0.00 | 0.00 | 0.00 | 54 | 1012.9 |
| 20260831002603 | 35 | 200 | 9.7 | 17.7 | 0.00 | 0.00 | 0.00 | 53 | 1012.8 |
| 20260831002102 | 35 | 256 | 8.0 | 16.1 | 0.00 | 0.00 | 0.00 | 53 | 1012.8 |
| 20260831001604 | 35 | 2 | 8.0 | 17.7 | 0.00 | 0.00 | 0.00 | 51 | 1012.9 |
| 20260831001601 | 35 | 210 | 9.7 | 17.7 | 0.00 | 0.00 | 0.00 | 52 | 1012.7 |
| 20260831001340 | 35 | 310 | 8.0 | 17.7 | 0.00 | 0.00 | 0.00 | 51 | 1012.6 |
| 20260831000602 | 35 | 311 | 8.0 | 16.1 | 0.00 | 0.00 | 0.00 | 50 | 1012.5 |
| 20260831000104 | 35 | 56 | 6.4 | 20.9 | 0.00 | 0.00 | 0.00 | 50 | 1012.8 |
| 20260830235602 | 36 | 176 | 9.7 | 20.9 | 0.00 | 0.00 | 0.00 | 50 | 1012.5 |
| 20260830235337 | 36 | 160 | 8.0 | 17.7 | 0.00 | 0.00 | 0.00 | 49 | 1012.6 |
| 20260830234602 | 36 | 201 | 6.4 | 17.7 | 0.00 | 0.00 | 0.00 | 48 | 1012.5 |
| 20260830234103 | 36 | 245 | 3.2 | 17.7 | 0.00 | 0.00 | 0.00 | 47 | 1012.5 |
| 20260830233602 | 36 | 214 | 6.4 | 17.7 | 0.00 | 0.00 | 0.00 | 48 | 1012.4 |
| 20260830233328 | 36 | 264 | 9.7 | 17.7 | 0.00 | 0.00 | 0.00 | 47 | 1012.4 |
| 20260830233108 | 36 | 190 | 9.7 | 20.9 | 0.00 | 0.00 | 0.00 | 47 | 1012.5 |
| 20260830232602 | 36 | 26 | 8.0 | 17.7 | 0.00 | 0.00 | 0.00 | 47 | 1012.3 |
| 20260830232326 | 37 | 184 | 6.4 | 17.7 | 0.00 | 0.00 | 0.00 | 47 | 1012.3 |
| 20260830231603 | 37 | 152 | 4.8 | 17.7 | 0.00 | 0.00 | 0.00 | 45 | 1012.5 |
| 20260830231601 | 37 | 58 | 6.4 | 17.7 | 0.00 | 0.00 | 0.00 | 46 | 1012.4 |
| 20260830231103 | 37 | 32 | 6.4 | 14.5 | 0.00 | 0.00 | 0.00 | 46 | 1012.3 |
| 20260830230604 | 37 | 124 | 4.8 | 16.1 | 0.00 | 0.00 | 0.00 | 46 | 1012.4 |
| 20260830230116 | 37 | 64 | 6.4 | 16.1 | 0.00 | 0.00 | 0.00 | 47 | 1012.3 |
| 20260830230100 | 37 | 304 | 4.8 | 16.1 | 0.00 | 0.00 | 0.00 | 46 | 1012.3 |
| 20260830225604 | 37 | 330 | 6.4 | 16.1 | 0.00 | 0.00 | 0.00 | 46 | 1012.2 |
| 20260830225103 | 37 | 297 | 8.0 | 16.1 | 0.00 | 0.00 | 0.00 | 46 | 1012.2 |
| 20260830224606 | 37 | 288 | 6.4 | 16.1 | 0.00 | 0.00 | 0.00 | 44 | 1012.4 |
| 20260830224603 | 37 | 288 | 8.0 | 14.5 | 0.00 | 0.00 | 0.00 | 44 | 1012.1 |
| 20260830224104 | 38 | 37 | 8.0 | 14.5 | 0.00 | 0.00 | 0.00 | 45 | 1012.1 |
| 20260830223604 | 38 | 130 | 6.4 | 19.3 | 0.00 | 0.00 | 0.00 | 45 | 1012.0 |
| 20260830223104 | 38 | 258 | 9.7 | 20.9 | 0.00 | 0.00 | 0.00 | 43 | 1012.1 |
| 20260830223055 | 37 | 252 | 9.7 | 20.9 | 0.00 | 0.00 | 0.00 | 43 | 1012.3 |
| 20260830222603 | 38 | 191 | 8.0 | 20.9 | 0.00 | 0.00 | 0.00 | 42 | 1011.9 |
| 20260830222326 | 38 | 250 | 9.7 | 17.7 | 0.00 | 0.00 | 0.00 | 42 | 1011.9 |
| 20260830221603 | 38 | 198 | 8.0 | 16.1 | 0.00 | 0.00 | 0.00 | 41 | 1012.2 |
| 20260830221104 | 38 | 39 | 8.0 | 16.1 | 0.00 | 0.00 | 0.00 | 42 | 1012.0 |